Погода в Ленино

Россия / Приморский край     44°13′21″N   134°24′39″E
темп.,
°C
ветер,
м/с
пор.,
м/с
влажн.,
%
обл.,
%
осадки,
мм/ч
давл.,
гПа
погр.,
м
17 июня, чт
чт1701:00+9юв23950 0.0 100950
04:00+8ююв229611 0.0 101024
07:00+12юв2385100 0.0 100994
10:00+20юв2448100 0.0 1007658
13:00+24юв3437100 0.0 10051440
16:00+26юв3432100 0.0 10031963
19:00+21юв2460100 0.0 1004275
22:00+14юв2385100 0.0 100555
18 июня, пт
пт1801:00+12юв2397100 0.0 100571
04:00+10юв2299100 0.0 100463
07:00+11юв2394100 0.0 1003139
10:00+16юв2469100 0.0 1002646
13:00+21юв4650100 0.1 10011518
16:00+14юв2496100 2.5 1001112
19:00+12вюв2698100 5.0 1002434
22:00+12юв2399100 9.3 1004143
19 июня, сб
сб1901:00+12юв2699100 0.9 1003473
04:00+11вюв2799100 1.3 1003594
07:00+11вюв2899100 0.7 1003672
10:00+9вюв2699100 1.4 1004526
13:00+11юв2595100 2.6 1004572
16:00+11юв3593100 3.3 1004537
19:00+10юв3692100 0.1 1005511
22:00+8юв2499100 0.5 1006287
20 июня, вс
вс2001:00+7юв2599100 0.6 1006387
04:00+7юв1399100 1.7 1006175
07:00+7юв1399100 0.9 1007188
10:00+7юв2398100 2.6 1007296
13:00+7юв2398100 1.6 1008340
16:00+7ююв2398100 2.8 1008278
19:00+7юв1399100 0.3 1008195
22:00+6юв2298100 0.3 101078
21 июня, пн
пн2101:00+6юв119788 0.0 101041
04:00+5ююв1195100 0.0 101023
07:00+6ююв1292100 0.0 101166
10:00+14вюв244995 0.0 10101089
13:00+18вюв3436100 0.0 10091824
16:00+19вюв3537100 0.0 10091794
19:00+16вюв2452100 0.0 1010477
22:00+9ю2278100 0.0 101227